Flag for South Africa Weather past 2 weeks in Cape Town, South Africa

Now
64 °F

Scattered clouds.


Feels Like: 64 °F
Forecast: 60 / 66 °F
Wind: 14 mph from Northwest

Location: Cape Town International Airport

Current Time: Apr 25, 2015 at 6:09:26 PM

Latest Report: Apr 25, 2015 at 5:00 PM


Visibility: N/A

Pressure: 30.15 "Hg

Humidity: 73%

Dew point: 55 °F

Location of Cape TownLocation

Historic Weather in Cape Town — Graph

°F

Cape Town temperature yesterday

Maximum temperature yesterday: 82 °F (at 2:00 PM)
Minimum temperature yesterday: 48 °F (at 7:00 AM)
Average temperature yesterday: 64 °F

Past Weeks' High & Low Weather Summary

 TemperatureHumidityPressure
High82 °F (Apr 12, 1:00 PM)100% (Apr 12, 8:00 AM)30.36 "Hg (Apr 12, 8:00 AM)
Low46 °F (Apr 16, 6:00 AM)24% (Apr 19, 2:00 PM)29.89 "Hg (Apr 10, 5:00 PM)
Average62 °F70%30.12 "Hg
* Reported Apr 10 4:00 PM — Apr 25 4:00 PM, Cape Town, Weather by CustomWeather, © 2015

Note: Actual official high and low records may vary slightly from our data, if they occured in-between our weather recording intervals... More about our weather records

Advertising

Cape Town weather history for previous 24 hours

 ConditionsComfort  
Time TempWeatherWind HumidityBarometerVisibility
4:00 PM
Sat, Apr 25
64 °FScattered clouds.10 mph73%30.12 "HgN/A
3:00 PM68 °FPartly sunny.14 mph69%30.12 "HgN/A
2:00 PM66 °FScattered clouds.12 mph68%30.12 "HgN/A
1:00 PM66 °FScattered clouds.10 mph68%30.12 "HgN/A
12:00 PM64 °FPassing clouds.16 mph73%30.12 "HgN/A
11:00 AM61 °FPassing clouds.12 mph83%30.09 "HgN/A
10:00 AM59 °FPartly sunny.10 mph94%30.12 "HgN/A
9:00 AM57 °FFog.9 mph100%30.09 "Hg3 mi
8:00 AM57 °FFog.10 mph94%30.07 "Hg1 mi
6:00 AM54 °FClear.7 mph88%30.04 "Hg10 mi
5:00 AM54 °FClear.7 mph82%30.01 "Hg10 mi
4:00 AM55 °FClear.3 mph77%30.01 "Hg10 mi
3:00 AM55 °FClear.5 mph77%30.01 "Hg10 mi
2:00 AM55 °FClear.5 mph82%30.04 "Hg10 mi
1:00 AM55 °FPassing clouds.3 mph82%30.01 "HgN/A
12:00 AM57 °FClear.2 mph77%30.04 "Hg10 mi
11:00 PM
Fri, Apr 24
57 °FClear.3 mph82%30.04 "Hg10 mi
10:00 PM57 °FClear.1 mph82%30.04 "Hg10 mi
9:00 PM59 °FClear.2 mph82%30.04 "Hg10 mi
8:00 PM59 °FPassing clouds.3 mph82%30.04 "HgN/A
7:00 PM68 °FPassing clouds.5 mph60%30.04 "HgN/A
6:00 PM68 °FClear.6 mph56%30.01 "Hg10 mi
Weather by CustomWeather, © 2015

See weather overviewHow to use our weather pages